Regional Weather Roundup
Issued by NWS

Home | Current Version | Previous Version | Graphics & Text | Print | Product List | Glossary On
Versions: 1 2 3 4 5 6 7 8 9 10 11 12 13 14 15 16 17 18 19 20 21 22 23 24 25 26 27 28 29 30 31 32 33 34 35 36 37 38 39 40 41 42 43 44 45 46 47 48 49 50
000
ASUS45 KPSR 031010
RWRAZ

ARIZONA HOURLY REGIONAL WEATHER ROUNDUP
NATIONAL WEATHER SERVICE PHOENIX AZ
300 AM MST THU SEP 03 2015

NOTE: FAIR INDICATES FEW OR NO CLOUDS BELOW 12,000 FEET WITH NO
SIGNIFICANT WEATHER AND/OR OBSTRUCTIONS TO VISIBILITY.

AZZ001>003-036-031100-
NORTHWEST ARIZONA

CITY           SKY/WX    TMP DP  RH WIND       PRES   REMARKS
BULLHEAD CITY  FAIR      84  45  24 S3        29.78R
KINGMAN        FAIR      75  38  26 S9        29.97S
$$

AZZ004>008-015-016-018-031100-
NORTH CENTRAL ARIZONA

CITY           SKY/WX    TMP DP  RH WIND       PRES   REMARKS
GRAND CANYON   FAIR      50  45  83 NE3       30.22S
WILLIAMS       FAIR      54  39  58 SE7       30.27S
PRESCOTT       FAIR      61  48  62 S7        30.11S
FLAGSTAFF      FAIR      45  38  76 CALM      30.25F
PAYSON         FAIR      63  45  51 CALM      30.15S
PAGE           FAIR      73  49  42 S3        30.04R
$$

AZZ009>014-017-031100-
NORTHEAST ARIZONA

CITY           SKY/WX    TMP DP  RH WIND       PRES   REMARKS
WINSLOW        FAIR      58  55  90 SE3       30.13S
SAINT JOHNS    FAIR      57  54  89 CALM      30.17S
WINDOW ROCK    CLOUDY    57  51  80 CALM      30.25S
SHOW LOW       FAIR      57  50  77 S8        30.22S
$$

AZZ023-031100-
GREATER PHOENIX AREA

CITY           SKY/WX    TMP DP  RH WIND       PRES   REMARKS
PHOENIX        FAIR      83  59  44 CALM      29.82S
BUCKEYE        FAIR      77  46  33 NW3       29.83S
LUKE AFB       FAIR      83  56  39 NE3       29.82R
DEER VALLEY    FAIR      81  50  33 CALM      29.85S
SCOTTSDALE     FAIR      80  59  48 CALM      29.87S
MESA-GATEWAY   FAIR      81  61  50 E8        29.87S
$$

AZZ027-028-031100-
SOUTHWEST MARICOPA COUNTY AND PINAL COUNTY

CITY           SKY/WX    TMP DP  RH WIND       PRES   REMARKS
CASA GRANDE    FAIR      79  59  50 CALM      29.86R
GILA BEND      MOCLDY    83  43  24 N2        29.81S
$$

AZZ503-504-507>509-031100-
SOUTHEAST ARIZONA

CITY           SKY/WX    TMP DP  RH WIND       PRES   REMARKS
TUCSON         FAIR      79  59  50 SE10      29.97F
DAVIS-MONTHAN  FAIR      77  60  56 SE12      29.96F
NOGALES        FAIR      69  61  75 NE5       30.06S
SIERRA VISTA   CLOUDY    66  60  81 S5        30.12S
DOUGLAS        CLOUDY    67  61  81 N5        30.08F
SAFFORD        FAIR      69  62  78 E8        30.02S
$$

AZZ020-021-025-026-031-031100-
SOUTHWEST ARIZONA

CITY           SKY/WX    TMP DP  RH WIND       PRES   REMARKS
YUMA           FAIR      85  56  37 S8        29.76S
$$

CAZ031-033-041-043-047-048-061-031100-
SOUTHERN CALIFORNIA

CITY           SKY/WX    TMP DP  RH WIND       PRES   REMARKS
DOWNTOWN L.A.  CLOUDY    67  59  75 CALM      29.91S
L.A. AIRPORT   CLOUDY    68  60  75 NW3       29.92S
SAN DIEGO      MOCLDY    69  59  70 CALM      29.93F
BURBANK        MOCLDY    67  58  72 S5        29.92S
ONTARIO        FAIR      64  58  80 W3        29.93S
RIVERSIDE      FAIR      64  58  80 CALM      29.93S
PALM SPRINGS   FAIR      79  48  33 CALM      29.78F
EL CENTRO NAS  FAIR      85  36  17 W13       29.76S
IMPERIAL       FAIR      83  49  30 CALM      29.74S
BLYTHE         FAIR      82  52  35 S6        29.77R
NEEDLES        FAIR      88  44  21 W8        29.78S
$$

NVZ020-UTZ003-031100-
SOUTHERN NEVADA-UTAH

CITY           SKY/WX    TMP DP  RH WIND       PRES   REMARKS
LAS VEGAS      MOCLDY    84  43  23 S6        29.80S
SALT LAKE CITY FAIR      78  40  25 S17       29.88S
$$

NMZ009-TXZ055-031100-
NEW MEXICO-WEST TEXAS

CITY           SKY/WX    TMP DP  RH WIND       PRES   REMARKS
ALBUQUERQUE    MOCLDY    69  48  47 SE6       30.16S
EL PASO        MOCLDY    79  51  37 N10       30.05F
$$


........................KEY........................
SKY/WX - SKY CONDITION/WEATHER
TMP    - TEMPERATURE IN FAHRENHEIT
DP     - DEW POINT IN FAHRENHEIT
RH     - RELATIVE HUMIDITY IN PERCENT
WIND   - DIRECTION AND SPEED IN MILES PER HOUR (MPH)
VRB    - VARIABLE WIND DIRECTION
PRES   - MEAN SEA LEVEL PRESSURE IN INCHES OF MERCURY
         F - FALLING PRESSURE   R - RISING PRESSURE
         S - STEADY PRESSURE
VSB    - VISIBILITY IN MILES
HX     - HEAT INDEX IN FAHRENHEIT
WCI    - WIND CHILL INDEX IN FAHRENHEIT
TC     - TEMPERATURE IN CELSIUS WHICH IS ALSO KNOWN AS
         TEMPERATURE IN CENTIGRADE
AFB    - AIR FORCE BASE
         LUKE AFB IS LUKE AIR FORCE BASE
         DAVIS-MONTHAN IS DAVIS-MONTHAN AIR FORCE BASE
NAS    - NAVAL AIR STATION
         EL CENTRO NAS IS EL CENTRO NAVAL AIR STATION
N/A    - NOT AVAILABLE




USA.gov is the U.S. government's official web portal to all federal, state and local government web resources and services.